NETSAT-4 (46504 NORAD) Tracking and Keplerian Element Data

This shows tracking and keplerian element data for the satellite.

Feedback or suggestion? Click here.




ElementValue
Catalog46504
NameNETSAT-4
Epoch Orbit941
Epoch Day335.77503308
Epoch Year2020
RAAN268.5246
Inclination97.6693
Eccentricity0.0011378
Argument of Perigee49.7457
Mean Anonmoly310.4791
Mean Motion15.01873829
Decay Rate1.678E-05
L11 46504U 20068U 20335.77503308 .00001678 00000-0 13296-3 0 9997
L22 46504 97.6693 268.5246 0011378 49.7457 310.4791 15.01873829 9413

Live tracking and technical data element details for NETSAT-4 (NORAD 46504). NETSAT-4 can be tracked NOW for your location showing map with azimuth and elevation plus other details from your city location.

Track the satellite on the map from your city or location and see movement details for azimuth, elevation, latitude, longitude, range, height, and movement on the map or in text.







IsCatalogInMostPopularTable: catalog: 46504, numindb: 19
Update: records affected: 1



GetName: 46504 NETSAT-4

Hit Count: updated at: Tue, 01 Dec 2020 21:54:14 GMT